Tracking 31027 objects as of 19-Jul-2025
HD Live streaming from Space Station
objects crossing your sky now

STARLINK-3749

Track STARLINK-3749 now!
10-day predictions
STARLINK-3749 is classified as:


NORAD ID: 52313
Int'l Code: 2022-041BE
Perigee: 545.9 km
Apogee: 547.9 km
Inclination: 53.2 °
Period: 95.4 minutes
Semi major axis: 6917 km
RCS: Unknown
Launch date: April 21, 2022
Source: United States (US)
Launch site: AIR FORCE EASTERN TEST RANGE (AFETR)
Your satellite tracking list
STARLINK-2062
Track 1 satellite(s)




NASA's NSSDC Master Catalog

Two Line Element Set (TLE):
1 52313U 22041BE  25199.03622851 -.00000440  00000-0 -95374-5 0  9999
2 52313  53.2177  62.5204 0001438  88.7028 271.4129 15.08843574180447
Source of the keplerian elements: AFSPC